Weather History for Hutchinson, MN

Change the Weather History Date:

Thursday, November 21, 2013

  Actual Average Record
Temperature  
Mean Temperature 28 °F -  
Max Temperature 35 °F 36 °F 64 °F (1990)
Min Temperature 20 °F 19 °F -3 °F (1964)
Degree Days  
Heating Degree Days 37    
Moisture  
Dew Point 21 °F    
Average Humidity 80    
Maximum Humidity 99    
Minimum Humidity 63    
Precipitation  
Precipitation 0.00 in - - ()
Sea Level Pressure  
Sea Level Pressure 30.30 in    
Wind  
Wind Speed 12 mph (NW)    
Max Wind Speed 23 mph    
Max Gust Speed 29 mph    
Visibility 8 miles    
Events Snow    
Averages and records for this station are not official NWS values.
T = Trace of Precipitation, MM = Missing Value Source: NWS Daily Summary

Daily Weather History Graph

Daily Weather History Graph

Search for Another Location

Airport:

Trip Planner

Search our weather history database for the weather conditions in past years. The results will help you decide how hot, cold, wet, or windy it might be!

Date:

Astronomy

Nov. 21, 2013 Rise Set
Actual Time 7:23 AM CST 4:43 PM CST
Civil Twilight 6:50 AM CST 5:15 PM CST
Nautical Twilight 6:14 AM CST 5:51 PM CST
Astronomical Twilight 5:40 AM CST 6:26 PM CST
Moon 8:22 PM CST (11/21) 10:29 AM CST (11/21)
Length of Visible Light 10h 24m
Length of Day
9h 20m
Waning Gibbous, 85% of the Moon is Illuminated
Nov 21
Waning Gibbous
Nov 25
Last Quarter
Dec 2
New
Dec 9
First Quarter
Dec 17
Full

Hourly Weather History & Observations

Time (CST) Temp. Windchill Dew Point Humidity Pressure Visibility Wind Dir Wind Speed Gust Speed Precip Events Conditions
12:14 AM 34.3 °F 31.4 °F 33.4 °F 97% 30.02 in 4.0 mi ESE 3.5 mph - N/A   Overcast
12:33 AM 34.7 °F - 33.8 °F 97% 30.03 in 4.0 mi Calm Calm - N/A   Overcast
12:54 AM 35.2 °F - 34.0 °F 95% 30.03 in 4.0 mi Calm Calm - N/A   Overcast
1:13 AM 35.6 °F - 34.3 °F 95% 30.04 in 4.0 mi Calm Calm - N/A   Overcast
1:33 AM 35.6 °F - 34.7 °F 97% 30.05 in 4.0 mi Calm Calm - N/A   Overcast
1:54 AM 35.8 °F - 34.7 °F 96% 30.05 in 4.0 mi Calm Calm - N/A   Overcast
2:14 AM 35.6 °F 29.2 °F 34.2 °F 94% 30.07 in 4.0 mi WSW 8.1 mph - N/A   Overcast
2:33 AM 34.2 °F 26.8 °F 33.1 °F 96% 30.07 in 5.0 mi West 9.2 mph - N/A   Overcast
2:53 AM 33.8 °F 26.4 °F 32.4 °F 94% 30.08 in 5.0 mi West 9.2 mph - N/A   Overcast
3:14 AM 33.1 °F 24.4 °F 32.0 °F 96% 30.09 in 5.0 mi WNW 11.5 mph 17.3 mph N/A   Overcast
3:33 AM 32.4 °F 23.5 °F 31.8 °F 98% 30.10 in 4.0 mi WNW 11.5 mph - N/A   Overcast
3:53 AM 32.0 °F 23.0 °F 31.6 °F 99% 30.10 in 4.0 mi NW 11.5 mph - N/A   Overcast
4:13 AM 30.7 °F 20.4 °F 29.3 °F 94% 30.11 in 5.0 mi West 13.8 mph - N/A   Overcast
4:33 AM 29.1 °F 18.9 °F 27.9 °F 95% 30.12 in 5.0 mi WNW 12.7 mph 21.9 mph N/A   Overcast
4:54 AM 28.8 °F 18.4 °F 27.5 °F 95% 30.13 in 5.0 mi WNW 12.7 mph 19.6 mph N/A   Overcast
5:13 AM 28.0 °F 17.5 °F 27.1 °F 96% 30.14 in 5.0 mi WNW 12.7 mph 17.3 mph N/A   Overcast
5:33 AM 27.5 °F 15.4 °F 26.6 °F 96% 30.15 in 5.0 mi WNW 16.1 mph 23.0 mph N/A   Overcast
5:54 AM 27.1 °F 14.9 °F 26.4 °F 97% 30.16 in 3.0 mi WNW 16.1 mph - N/A   Overcast
6:13 AM 26.6 °F 13.8 °F 26.2 °F 99% 30.17 in 3.0 mi WNW 17.3 mph 23.0 mph N/A   Overcast
6:33 AM 26.6 °F 14.7 °F 25.5 °F 96% 30.19 in 7.0 mi WNW 15.0 mph 24.2 mph N/A   Overcast
6:53 AM 26.4 °F 12.8 °F 25.0 °F 94% 30.20 in 10.0 mi NW 19.6 mph 26.5 mph N/A   Overcast
7:13 AM 26.2 °F 13.8 °F 23.9 °F 91% 30.21 in 10.0 mi NW 16.1 mph 24.2 mph N/A   Overcast
7:34 AM 26.1 °F 12.0 °F 23.2 °F 89% 30.22 in 10.0 mi NW 20.7 mph 27.6 mph N/A   Overcast
7:53 AM 25.7 °F 11.2 °F 22.1 °F 86% 30.23 in 10.0 mi NW 21.9 mph 28.8 mph N/A   Overcast
8:13 AM 25.3 °F 11.0 °F 21.6 °F 86% 30.24 in 10.0 mi NW 20.7 mph 25.3 mph N/A   Overcast
8:34 AM 25.2 °F 10.4 °F 20.5 °F 82% 30.25 in 10.0 mi NW 21.9 mph 27.6 mph N/A   Overcast
8:53 AM 24.8 °F 11.5 °F 19.9 °F 82% 30.26 in 10.0 mi NNW 17.3 mph 26.5 mph N/A   Overcast
9:13 AM 24.8 °F 10.7 °F 19.2 °F 79% 30.26 in 10.0 mi NW 19.6 mph 24.2 mph N/A   Overcast
9:34 AM 24.8 °F 11.1 °F 19.0 °F 79% 30.27 in 10.0 mi NW 18.4 mph 25.3 mph N/A   Overcast
9:54 AM 25.2 °F 11.2 °F 19.2 °F 78% 30.27 in 10.0 mi NW 19.6 mph 25.3 mph N/A   Overcast
10:13 AM 25.2 °F 10.1 °F 18.9 °F 77% 30.27 in 10.0 mi NNW 23.0 mph 26.5 mph N/A   Overcast
10:33 AM 25.3 °F 11.8 °F 18.3 °F 75% 30.29 in 10.0 mi NNW 18.4 mph 26.5 mph N/A   Overcast
10:54 AM 25.7 °F 12.7 °F 19.0 °F 76% 30.31 in 10.0 mi NNW 17.3 mph 23.0 mph N/A   Overcast
11:13 AM 25.9 °F 12.9 °F 18.5 °F 74% 30.32 in 10.0 mi NNW 17.3 mph 23.0 mph N/A   Overcast
11:33 AM 26.1 °F 12.7 °F 18.3 °F 73% 30.33 in 10.0 mi NW 18.4 mph 23.0 mph N/A   Overcast
11:53 AM 26.2 °F 13.0 °F 18.5 °F 73% 30.32 in 10.0 mi NNW 18.4 mph 23.0 mph N/A   Overcast
12:13 PM 26.6 °F 13.8 °F 18.7 °F 72% 30.32 in 10.0 mi NNW 17.3 mph 21.9 mph N/A   Overcast
12:34 PM 27.3 °F 15.6 °F 19.4 °F 72% 30.32 in 10.0 mi NNW 15.0 mph - N/A   Overcast
12:53 PM 27.5 °F 15.4 °F 19.4 °F 72% 30.32 in 10.0 mi NNW 16.1 mph 20.7 mph N/A   Overcast
1:13 PM 27.7 °F 14.1 °F 19.4 °F 71% 30.32 in 10.0 mi NNW 20.7 mph 24.2 mph N/A   Overcast
1:33 PM 27.5 °F 14.2 °F 20.8 °F 76% 30.32 in 4.0 mi NNW 19.6 mph 25.3 mph N/A Snow Light Snow
1:53 PM 26.8 °F 14.1 °F 21.6 °F 81% 30.33 in 2.5 mi NNW 17.3 mph 23.0 mph N/A Snow Light Snow
2:13 PM 27.0 °F 14.3 °F 21.4 °F 79% 30.34 in 5.0 mi NNW 17.3 mph 21.9 mph N/A Snow Light Snow
2:33 PM 26.6 °F 12.4 °F 20.8 °F 79% 30.34 in 4.0 mi NNW 21.9 mph 25.3 mph N/A Snow Light Snow
2:53 PM 26.2 °F 13.4 °F 21.2 °F 81% 30.35 in 7.0 mi NNW 17.3 mph 23.0 mph N/A Snow Light Snow
3:13 PM 26.6 °F 13.4 °F 20.5 °F 78% 30.36 in 7.0 mi NNW 18.4 mph 21.9 mph N/A   Overcast
3:33 PM 26.4 °F 14.0 °F 19.4 °F 75% 30.37 in 10.0 mi NNW 16.1 mph 24.2 mph N/A   Overcast
3:53 PM 26.6 °F 13.4 °F 19.6 °F 75% 30.38 in 4.0 mi NNW 18.4 mph 26.5 mph N/A Snow Light Snow
4:14 PM 26.1 °F 12.7 °F 19.0 °F 75% 30.39 in 5.0 mi NNW 18.4 mph 25.3 mph N/A Snow Light Snow
4:33 PM 26.2 °F 13.0 °F 18.9 °F 74% 30.39 in 10.0 mi NNW 18.4 mph - N/A   Overcast
4:53 PM 26.6 °F 15.2 °F 18.1 °F 70% 30.40 in 10.0 mi NNW 13.8 mph 26.5 mph N/A   Overcast
5:13 PM 26.6 °F 13.1 °F 16.7 °F 66% 30.41 in 10.0 mi NNW 19.6 mph 27.6 mph N/A   Overcast
5:33 PM 26.6 °F 13.8 °F 16.9 °F 67% 30.42 in 10.0 mi NNW 17.3 mph 24.2 mph N/A   Overcast
5:53 PM 26.2 °F 13.8 °F 16.7 °F 67% 30.43 in 10.0 mi NNW 16.1 mph 24.2 mph N/A   Overcast
6:13 PM 26.2 °F 12.2 °F 15.8 °F 65% 30.44 in 10.0 mi NNW 20.7 mph 26.5 mph N/A   Overcast
6:34 PM 26.2 °F 13.8 °F 15.8 °F 65% 30.44 in 10.0 mi NNW 16.1 mph 23.0 mph N/A   Overcast
6:53 PM 26.1 °F 12.7 °F 15.6 °F 65% 30.45 in 10.0 mi NNW 18.4 mph 25.3 mph N/A   Overcast
7:13 PM 25.7 °F 12.7 °F 14.9 °F 64% 30.45 in 10.0 mi NNW 17.3 mph 24.2 mph N/A   Overcast
7:33 PM 25.5 °F 12.9 °F 15.1 °F 65% 30.46 in 10.0 mi NNW 16.1 mph 23.0 mph N/A   Overcast
7:54 PM 25.3 °F 11.8 °F 14.4 °F 63% 30.46 in 10.0 mi NNW 18.4 mph 25.3 mph N/A   Overcast
8:13 PM 25.3 °F 12.6 °F 14.9 °F 65% 30.48 in 10.0 mi NNW 16.1 mph 20.7 mph N/A   Overcast
8:33 PM 24.8 °F 11.5 °F 13.8 °F 63% 30.48 in 10.0 mi NNW 17.3 mph 21.9 mph N/A   Overcast
8:53 PM 23.9 °F 12.9 °F 15.3 °F 70% 30.49 in 10.0 mi NW 11.5 mph - N/A   Overcast
9:14 PM 23.9 °F 10.3 °F 13.8 °F 65% 30.50 in 10.0 mi NNW 17.3 mph - N/A   Overcast
9:33 PM 23.4 °F 9.2 °F 13.6 °F 66% 30.50 in 10.0 mi NW 18.4 mph 23.0 mph N/A   Overcast
9:53 PM 23.0 °F 11.1 °F 13.8 °F 68% 30.51 in 10.0 mi NNW 12.7 mph 23.0 mph N/A   Overcast
10:13 PM 22.6 °F 10.1 °F 13.1 °F 67% 30.52 in 10.0 mi NNW 13.8 mph 24.2 mph N/A   Mostly Cloudy
10:33 PM 22.1 °F 8.0 °F 13.6 °F 70% 30.53 in 10.0 mi NW 17.3 mph 21.9 mph N/A   Overcast
10:54 PM 22.1 °F 10.6 °F 13.3 °F 69% 30.53 in 10.0 mi NNW 11.5 mph - N/A   Overcast
11:13 PM 21.6 °F 7.3 °F 12.7 °F 69% 30.54 in 10.0 mi NW 17.3 mph - N/A   Overcast
11:34 PM 21.2 °F 8.3 °F 12.9 °F 70% 30.54 in 10.0 mi NW 13.8 mph - N/A   Mostly Cloudy
11:54 PM 20.5 °F 7.4 °F 13.1 °F 73% 30.54 in 10.0 mi NW 13.8 mph - N/A   Mostly Cloudy